Flag for Germany Weather past 2 weeks in Wittenberg, Saxony-Anhalt, Germany

Now
36 °F

Passing clouds.


Feels Like: 30 °F
Forecast: 31 / 50 °F
Wind: 7 mph from West

Location: Holzdorf

Current Time: Feb 28, 2015 at 1:50:40 AM

Latest Report: Feb 28, 2015 at 12:20 AM


Visibility: 5 mi

Pressure: 30.04 "Hg

Humidity: 93%

Dew point: 34 °F

Location of WittenbergLocation

Historic Weather in Wittenberg — Graph

°F

Wittenberg temperature yesterday

Maximum temperature yesterday: 50 °F (at 1:20 PM)
Minimum temperature yesterday: 27 °F (at 7:20 AM)
Average temperature yesterday: 37 °F

Past Weeks' High & Low Weather Summary

 TemperatureHumidityPressure
High50 °F (Feb 20, 2:20 PM)100% (Feb 13, 1:20 AM)30.74 "Hg (Feb 13, 1:20 AM)
Low21 °F (Feb 15, 5:20 AM)40% (Feb 27, 2:00 PM)29.42 "Hg (Feb 21, 1:20 PM)
Average35 °F82%30.02 "Hg
* Reported Feb 13 12:20 AM — Feb 28 12:20 AM, Wittenberg, Weather by CustomWeather, © 2015

Note: Actual official high and low records may vary slightly from our data, if they occured in-between our weather recording intervals... More about our weather records

Advertising

Wittenberg weather history for previous 24 hours

 ConditionsComfort  
Time TempWeatherWind HumidityBarometerVisibility
12:20 AM
Sat, Feb 28
36 °FPassing clouds.7 mph93%30.04 "Hg5 mi
11:20 PM
Fri, Feb 27
34 °FPartly cloudy.5 mph93%30.04 "Hg6 mi
10:20 PM28 °FPassing clouds.3 mph93%30.01 "HgN/A
9:20 PM32 °FPassing clouds.2 mph87%30.01 "HgN/A
8:20 PM32 °FPassing clouds.No wind80%29.98 "HgN/A
7:20 PM37 °FPassing clouds.5 mph70%29.95 "HgN/A
6:20 PM36 °FPassing clouds.1 mph70%29.92 "HgN/A
5:20 PM45 °FPassing clouds.1 mph49%29.89 "HgN/A
4:20 PM50 °FPassing clouds.2 mph40%29.89 "HgN/A
3:20 PM50 °FPassing clouds.5 mph40%29.89 "HgN/A
2:20 PM50 °FCool.7 mph40%29.86 "HgN/A
2:00 PM50 °FPassing clouds.6 mph40%29.89 "HgN/A
1:20 PM50 °FPassing clouds.5 mph43%29.89 "HgN/A
12:20 PM48 °FPassing clouds.8 mph50%29.89 "HgN/A
11:20 AM45 °FQuite cool.7 mph61%29.89 "HgN/A
10:20 AM39 °FChilly.8 mph70%29.89 "HgN/A
9:20 AM34 °FChilly.7 mph87%29.89 "HgN/A
8:20 AM30 °FChilly.5 mph86%29.89 "Hg6 mi
7:20 AM27 °FChilly.5 mph93%29.89 "Hg5 mi
6:20 AM28 °FPassing clouds.5 mph86%29.89 "HgN/A
5:20 AM28 °FChilly.5 mph86%29.89 "HgN/A
4:20 AM28 °FChilly.5 mph86%29.89 "HgN/A
3:20 AM28 °FChilly.6 mph86%29.92 "HgN/A
2:20 AM28 °FChilly.5 mph86%29.95 "HgN/A
1:20 AM28 °FChilly.5 mph93%29.98 "HgN/A
Weather by CustomWeather, © 2015

See weather overviewHow to use our weather pages